Tracking 29487 objects as of 10-Sep-2024
HD Live streaming from Space Station
objects crossing your sky now

FENGYUN 1C DEB

Track FENGYUN 1C DEB now!
10-day predictions


NORAD ID: 36167
Int'l Code: 1999-025DSQ
Perigee: 700.0 km
Apogee: 809.2 km
Inclination: 98.8 °
Period: 99.8 minutes
Semi major axis: 7125 km
RCS: 0.0111 m2 (small)
Launch date: May 10, 1999
Source: People's Republic of China (PRC)
Launch site: Taiyaun Space Center, China (TSC)

Note: This is SATELLITE DEBRIS
Your satellite tracking list
Your tracking list is empty




NASA's NSSDC Master Catalog

Two Line Element Set (TLE):
1 36167U 99025DSQ 24253.92879787  .00010838  00000-0  31112-2 0  9991
2 36167  98.8468 135.8545 0076613 178.9219 181.2149 14.43344807821442
Source of the keplerian elements: AFSPC